This demonstration page uses our WeatherBlox Daily Observations layout. Learn more.

Left ArrowRight Arrow

36.17497, -115.13722

Hourly Observations for September 17, 2016

Temp ( °F °C ) Dew Point ( °F °C ) Humidity (%) Winds ( mph kmh ) Pressure ( in mb ) Visibility ( mi km ) Precip ( " mm )
12:53 am 00:53 Clear 74 23.3 27 -2.8 17 17 WNW 6 9 29.93 1014 10 16.0934 0 0
1:53 am 01:53 Clear 71 21.7 26 -3.3 19 19 ESE 5 7 29.95 1014 10 16.0934 0 0
2:53 am 02:53 Clear 71 21.7 28 -2.2 20 20 WNW 5 7 29.95 1014 10 16.0934 0 0
3:53 am 03:53 Clear 70 21.1 30 -1.1 23 23 NW 3 6 29.96 1014 10 16.0934 0 0
4:53 am 04:53 Clear 68 20 30 -1.1 24 24 WNW 3 6 29.96 1015 10 16.0934 0 0
5:53 am 05:53 Clear 71 21.7 26 -3.3 19 19 WNW 7 11 29.99 1016 10 16.0934 0 0
6:53 am 06:53 Sunny 68 20 27 -2.8 21 21 Calm 30.01 1016 10 16.0934 0 0
7:53 am 07:53 Sunny 73 22.8 28 -2.2 19 19 NW 3 6 30.02 1017 10 16.0934 0 0
8:53 am 08:53 Sunny 79 26.1 28 -2.2 15 15 NW 6 9 30.04 1017 10 16.0934 0 0
9:53 am 09:53 Sunny 83 28.3 26 -3.3 12 12 N 3 6 30.05 1018 10 16.0934 0 0
10:53 am 10:53 Sunny 85 29.4 27 -2.8 12 12 ESE 5 7 30.05 1018 10 16.0934 0 0
11:53 am 11:53 Sunny 87 30.6 27 -2.8 11 11 Calm 30.04 1017 10 16.0934 0 0
12:53 pm 12:53 Sunny 89 31.7 29 -1.7 11 11 Calm 30.02 1017 10 16.0934 0 0
1:53 pm 13:53 Sunny 92 33.3 28 -2.2 10 10 Calm 29.99 1016 10 16.0934 0 0
2:53 pm 14:53 Sunny 93 33.9 26 -3.3 9 9 Calm 29.96 1015 10 16.0934 0 0
3:53 pm 15:53 Sunny 93 33.9 24 -4.4 8 8 SE 6 9 29.95 1014 10 16.0934 0 0
4:53 pm 16:53 Sunny 93 33.9 25 -3.9 8 8 Calm 29.94 1014 10 16.0934 0 0
5:53 pm 17:53 Sunny 92 33.3 24 -4.4 8 8 Calm 29.93 1014 10 16.0934 0 0
6:53 pm 18:53 Clear 90 32.2 24 -4.4 9 9 S 3 6 29.94 1014 10 16.0934 0 0
7:53 pm 19:53 Clear 88 31.1 28 -2.2 11 11 Calm 29.95 1014 10 16.0934 0 0
8:53 pm 20:53 Clear 84 28.9 32 0 15 15 W 7 11 29.96 1014 10 16.0934 0 0
9:53 pm 21:53 Clear 79 26.1 32 0 18 18 NNW 7 11 29.96 1015 10 16.0934 0 0
10:53 pm 22:53 Clear 78 25.6 28 -2.2 16 16 NW 6 9 29.96 1015 10 16.0934 0 0
11:53 pm 23:53 Clear 77 25 28 -2.2 16 16 WNW 3 6 29.97 1015 10 16.0934 0 0

Powered by AerisWeather